Edwards AFB North Base, CA

1:03 AM PDT on June 29, 2017 (GMT -0700)
Edwards AFB North Base

Weather History for K9L2 - March, 2013

Change the Weather History Date:

Saturday, March 2, 2013

  Actual Average (KEDW) Record (KEDW)
Temperature  
Mean Temperature 52 °F -  
Max Temperature 73 °F 61 °F 82 °F (2016)
Min Temperature 32 °F 34 °F 24 °F (2002)
Degree Days  
Heating Degree Days 12    
Growing Degree Days 2 (Base 50)    
Moisture  
Dew Point 14 °F    
Average Humidity 22    
Maximum Humidity 37    
Minimum Humidity 12    
Precipitation  
Precipitation 0.00 in - - ()
Sea Level Pressure  
Sea Level Pressure 30.21 in    
Wind  
Wind Speed 2 mph (WSW)    
Max Wind Speed 14 mph    
Max Gust Speed -    
Visibility 10 miles    
Events      
Averages and records for this station are not official NWS values.
T = Trace of Precipitation, MM = Missing Value Source: NWS Daily Summary

Daily Weather History Graph

Daily Weather History Graph

Search for Another Location

Airport or City:

Trip Planner

Search our weather history database for the weather conditions in past years. The results will help you decide how hot, cold, wet, or windy it might be!

Date:

Astronomy

Mar. 02, 2013 Rise Set
Actual Time 6:19 AM PST 5:48 PM PST
Civil Twilight 5:53 AM PST 6:13 PM PST
Nautical Twilight 5:24 AM PST 6:43 PM PST
Astronomical Twilight 4:55 AM PST 7:12 PM PST
Moon 11:18 PM PST (3/2) 9:04 AM PST (3/2)
Length of Visible Light 12h 19m
Length of Day
11h 29m
Waning Gibbous, 73% of the Moon is Illuminated
Mar 2
Waning Gibbous
Mar 4
Last Quarter
Mar 11
New
Mar 19
First Quarter
Mar 27
Full

Hourly Weather History & Observations

Time (PST) Temp. Windchill Dew Point Humidity Pressure Visibility Wind Dir Wind Speed Gust Speed Precip Events Conditions
12:55 AM 39.9 °F - 8.1 °F 27% 30.32 in 10.0 mi Calm Calm - N/A   Clear
1:55 AM 39.0 °F 35.7 °F 10.0 °F 30% 30.31 in 10.0 mi NW 4.6 mph - N/A   Clear
2:55 AM 37.0 °F 34.5 °F 10.0 °F 33% 30.29 in 10.0 mi North 3.5 mph - N/A   Clear
3:55 AM 34.0 °F - 7.0 °F 32% 30.30 in 10.0 mi Calm Calm - N/A   Clear
4:55 AM 34.0 °F - 7.0 °F 32% 30.30 in 10.0 mi Calm Calm - N/A   Clear
5:55 AM 32.0 °F 28.7 °F 8.1 °F 37% 30.32 in 10.0 mi NNE 3.5 mph - N/A   Clear
6:55 AM 35.1 °F - 9.0 °F 34% 30.32 in 10.0 mi Calm Calm - N/A   Clear
7:55 AM 42.1 °F - 12.0 °F 29% 30.33 in 10.0 mi Calm Calm - N/A   Clear
8:55 AM 46.9 °F - 12.9 °F 25% 30.33 in 10.0 mi Calm Calm - N/A   Clear
9:55 AM 54.0 °F - 17.1 °F 23% 30.30 in 10.0 mi South 4.6 mph - N/A   Clear
10:55 AM 61.0 °F - 17.1 °F 18% 30.28 in 10.0 mi Calm Calm - N/A   Clear
11:55 AM 69.1 °F - 17.1 °F 14% 30.23 in 10.0 mi Calm Calm - N/A   Clear
12:55 PM 72.0 °F - 19.0 °F 13% 30.19 in 10.0 mi Calm Calm - N/A   Clear
1:55 PM 72.0 °F - 18.0 °F 13% 30.16 in 10.0 mi Calm Calm - N/A   Clear
2:55 PM 73.0 °F - 17.1 °F 12% 30.14 in 10.0 mi Calm Calm - N/A   Clear
3:55 PM 72.0 °F - 17.1 °F 12% 30.12 in 10.0 mi South 3.5 mph - N/A   Clear
4:55 PM 72.0 °F - 17.1 °F 12% 30.10 in 10.0 mi Calm Calm - N/A   Clear
5:55 PM 64.0 °F - 17.1 °F 16% 30.11 in 10.0 mi SSW 5.8 mph - N/A   Clear
6:55 PM 66.0 °F - 19.9 °F 17% 30.12 in 10.0 mi SW 13.8 mph - N/A   Clear
7:55 PM 63.0 °F - 19.9 °F 19% 30.12 in 10.0 mi WSW 13.8 mph - N/A   Clear
8:55 PM 57.9 °F - 16.0 °F 19% 30.12 in 10.0 mi WSW 8.1 mph - N/A   Clear
9:55 PM 54.0 °F - 16.0 °F 22% 30.12 in 10.0 mi Calm Calm - N/A   Clear
10:55 PM 54.0 °F - 16.0 °F 22% 30.10 in 10.0 mi Calm Calm - N/A   Clear
11:55 PM 55.9 °F - 16.0 °F 21% 30.07 in 10.0 mi West 6.9 mph - N/A   Clear